Flag for Haiti Weather past 2 weeks in Cap-Haïtien, Haiti

Now
82 °F

Passing clouds.


Feels Like: 89 °F
Forecast: 78 / 88 °F
Wind: 14 mph from East

Location: Santiago

Current Time: Jul 22, 2014 at 8:40:49 PM

Latest Report: Jul 22, 2014 at 8:00 PM


Visibility: N/A

Pressure: 30.01 "Hg

Humidity: 79%

Dew point: 75 °F

Location of Cap-HaïtienLocation

Historic Weather in Cap-Haïtien — Graph

°F

Cap-Haïtien temperature yesterday

Maximum temperature yesterday: 93 °F (at 3:00 PM)
Minimum temperature yesterday: 73 °F (at 6:00 AM)
Average temperature yesterday: 83 °F

Past Weeks' High & Low Weather Summary

 TemperatureHumidityPressure
High93 °F (Jul 7, 2:00 PM)100% (Jul 8, 7:00 AM)30.15 "Hg (Jul 8, 7:00 AM)
Low72 °F (Jul 11, 4:00 AM)41% (Jul 13, 3:00 PM)29.86 "Hg (Jul 12, 4:00 AM)
Average82 °F78%30.04 "Hg
* Reported Jul 7 1:00 PM — Jul 22 1:00 PM, Cap-Haïtien, Weather by CustomWeather, © 2014

Note: Actual official high and low records may vary slightly from our data, if they occured in-between our weather recording intervals... More about our weather records

Advertising

Cap-Haïtien weather history for previous 24 hours

 ConditionsComfort  
Time TempWeatherWind HumidityBarometerVisibility
1:00 PM
Jul 22
90 °FScattered clouds.16 mph59%30.04 "HgN/A
12:00 PM86 °FScattered clouds.14 mph66%30.07 "HgN/A
11:00 AM86 °FScattered clouds.12 mph66%30.09 "HgN/A
10:00 AM81 °FPartly sunny.8 mph74%30.09 "HgN/A
9:00 AM77 °FScattered clouds.14 mph89%30.09 "HgN/A
8:00 AM73 °FScattered clouds.7 mph100%30.09 "HgN/A
7:00 AM73 °FScattered clouds.6 mph100%30.07 "HgN/A
6:00 AM75 °FPassing clouds.6 mph94%30.04 "HgN/A
5:00 AM75 °FPassing clouds.5 mph89%30.04 "HgN/A
4:00 AM75 °FPassing clouds.7 mph94%30.01 "HgN/A
3:00 AM77 °FPassing clouds.7 mph89%30.04 "HgN/A
2:00 AM77 °FPassing clouds.9 mph89%30.04 "HgN/A
1:00 AM77 °FPassing clouds.6 mph89%30.04 "HgN/A
12:00 AM79 °FPassing clouds.6 mph84%30.04 "HgN/A
11:00 PM
Jul 21
79 °FPassing clouds.9 mph79%30.07 "HgN/A
10:00 PM81 °FPassing clouds.9 mph74%30.04 "HgN/A
9:00 PM81 °FPassing clouds.10 mph70%30.04 "HgN/A
8:00 PM84 °FPassing clouds.14 mph58%30.01 "HgN/A
Weather by CustomWeather, © 2014

See weather overviewHow to use our weather pages